Weather History for Goshen, IN

Change the Weather History Date:

Tuesday, November 27, 2012

  Actual Average Record
Temperature  
Mean Temperature 30 °F -  
Max Temperature 36 °F 44 °F 66 °F (1990)
Min Temperature 24 °F 32 °F 12 °F (2002)
Degree Days  
Heating Degree Days 35    
Moisture  
Dew Point 20 °F    
Average Humidity 64    
Maximum Humidity 73    
Minimum Humidity 50    
Precipitation  
Precipitation 0.00 in - - ()
Sea Level Pressure  
Sea Level Pressure 30.33 in    
Wind  
Wind Speed 3 mph (WNW)    
Max Wind Speed 7 mph    
Max Gust Speed -    
Visibility 10 miles    
Events      
Averages and records for this station are not official NWS values.
T = Trace of Precipitation, MM = Missing Value Source: NWS Daily Summary

Daily Weather History Graph

Daily Weather History Graph

Search for Another Location

Airport:

Trip Planner

Search our weather history database for the weather conditions in past years. The results will help you decide how hot, cold, wet, or windy it might be!

Date:

Astronomy

Nov. 27, 2012 Rise Set
Actual Time 7:46 AM EST 5:15 PM EST
Civil Twilight 7:15 AM EST 5:45 PM EST
Nautical Twilight 6:41 AM EST 6:20 PM EST
Astronomical Twilight 6:08 AM EST 6:53 PM EST
Moon 4:46 PM EST (11/27) 6:50 AM EST (11/27)
Length of Visible Light 10h 30m
Length of Day
9h 28m
Waxing Gibbous, 99% of the Moon is Illuminated
Nov 27
Waxing Gibbous
Nov 28
Full
Dec 6
Last Quarter
Dec 13
New
Dec 20
First Quarter

Hourly Weather History & Observations

Time (EST) Temp. Windchill Dew Point Humidity Pressure Visibility Wind Dir Wind Speed Gust Speed Precip Events Conditions
12:53 AM 32.0 °F - 24.1 °F 73% 30.32 in 10.0 mi Calm Calm - N/A   Overcast
1:53 AM 32.0 °F 28.7 °F 24.1 °F 73% 30.32 in 10.0 mi North 3.5 mph - N/A   Overcast
2:53 AM 32.0 °F 26.4 °F 23.0 °F 69% 30.32 in 10.0 mi NNE 5.8 mph - N/A   Overcast
3:53 AM 30.9 °F 25.2 °F 21.9 °F 69% 30.32 in 10.0 mi North 5.8 mph - N/A   Overcast
4:53 AM 30.0 °F 25.2 °F 21.9 °F 72% 30.33 in 10.0 mi North 4.6 mph - N/A   Overcast
5:53 AM 30.0 °F - 21.9 °F 72% 30.34 in 10.0 mi Calm Calm - N/A   Overcast
6:53 AM 30.0 °F 26.5 °F 19.9 °F 66% 30.34 in 10.0 mi NW 3.5 mph - N/A   Overcast
7:53 AM 30.9 °F 25.2 °F 19.9 °F 64% 30.35 in 10.0 mi North 5.8 mph - N/A   Overcast
8:53 AM 30.9 °F - 19.9 °F 64% 30.36 in 10.0 mi Calm Calm - N/A   Overcast
9:53 AM 32.0 °F - 21.0 °F 64% 30.39 in 10.0 mi Calm Calm - N/A   Overcast
10:53 AM 33.1 °F 27.7 °F 19.9 °F 59% 30.41 in 10.0 mi West 5.8 mph - N/A   Overcast
11:53 AM 34.0 °F - 19.0 °F 54% 30.40 in 10.0 mi Calm Calm - N/A   Overcast
12:53 PM 34.0 °F 29.8 °F 19.0 °F 54% 30.37 in 10.0 mi West 4.6 mph - N/A   Overcast
1:53 PM 36.0 °F 30.3 °F 19.0 °F 50% 30.34 in 10.0 mi NW 6.9 mph - N/A   Scattered Clouds
3:53 PM 35.1 °F 29.3 °F 19.0 °F 52% 30.30 in 10.0 mi West 6.9 mph - N/A   Clear
4:53 PM 34.0 °F - 19.0 °F 54% 30.29 in 10.0 mi Calm Calm - N/A   Clear
5:53 PM 30.0 °F - 19.9 °F 66% 30.30 in 10.0 mi Calm Calm - N/A   Clear
6:53 PM 28.9 °F 23.9 °F 19.0 °F 67% 30.31 in 10.0 mi South 4.6 mph - N/A   Clear
7:53 PM 27.0 °F 19.5 °F 18.0 °F 69% 30.30 in 10.0 mi SSW 6.9 mph - N/A   Clear
8:53 PM 26.1 °F 19.4 °F 16.0 °F 66% 30.31 in 10.0 mi SW 5.8 mph - N/A   Clear
9:53 PM 26.1 °F 19.4 °F 16.0 °F 66% 30.31 in 10.0 mi SSW 5.8 mph - N/A   Clear
10:53 PM 24.1 °F 16.0 °F 16.0 °F 71% 30.30 in 10.0 mi SSW 6.9 mph - N/A   Clear
11:53 PM 25.0 °F 19.3 °F 15.1 °F 66% 30.29 in 10.0 mi SSW 4.6 mph - N/A   Scattered Clouds